User: anonymous   Login
Location: Balaclava NSW 2575, Australia
(34.4510°S, 150.4953°E)
Time: 01:20:49
(UTC+10:00)
Language:

Oscar 19 - Orbit

View from above orbital plane
View from above orbital plane
View from above satellite
View from above satellite

Ground track
Ground track

The orbit data is extracted from the following two-line orbital elements,

1 20442U 90005G   21215.12953046 -.00000003  00000-0  15556-4 0  9997
2 20442  98.7441 171.0289 0012357  28.8934 331.2931 14.32993072647578
Epoch (UTC): 03 August 2021 03:06:31
Eccentricity: 0.0012357
inclination: 98.7441°
perigee height: 773 km
apogee height: 790 km
right ascension of ascending node: 171.0289°
argument of perigee: 28.8934°
revolutions per day: 14.32993072
mean anomaly at epoch: 331.2931°
orbit number at epoch: 64757

The dashed part of the orbit path shows where the satellite is in the earth's shadow,  

DLR